Starlink 32150

operational
NORAD ID: 60294 Int'l Des: 2024-132 Owner: SPXS Country: US Constellation: starlink
LEOCIRCULAR

关于 Starlink 32150

正在加载描述...

实时位置

正在加载3D地球...

即将过境

高度历史

Altitude vs Time

uPlot chart will show altitude changes over time

两行轨道根数

1 60294U 24132S 25352.60823681 .00010333 00000-0 36029-3 0 9997
2 60294 53.1605 69.2472 0001600 105.2172 254.9006 15.30219487 79145
Epoch: Dec 18, 2025 • Age: 16 hours

当前状态

高度 476.7 km
速度 7.63 km/s
星下点 -1.96°S, 117.29°W
发射日期 Jul 28, 2024
运行时间 1.3 years
类型 internet

技术详情

分类 Payload
质量 730.00 kg
干质量 700.00 kg
总质量 730.00 kg
长度 0.30 m
直径 4.10 m
跨度 29.00 m
形状 Box + pan
制造商 SPXS
平台类型 Starlink V2M
阶段状态 In Orbit
所有者/国家 SPXS/US

大型星座

Loading constellations...